FW1511 Weather Reports


Display with metric or nautical units.
time (UTC)temp
F
wind
direction
speed
MPH
gust
MPH
rain 1hr
in
rain 24hr
in
rain mn
in
humidity
%
barometer
mb
20260905130106 46 162 0.0 0.0 0.00 0.00 0.00 98 1016.4
20260905130054 47 0 0.0 0.0 0.00 0.00 0.00 100 1015.9
20260905125154 47 0 0.0 0.0 0.00 0.00 0.00 100 1015.9
20260905124502 46 162 0.0 0.0 0.00 0.00 0.00 98 1016.5
20260905124254 47 0 0.0 0.0 0.00 0.00 0.00 100 1016.0
20260905123354 46 0 0.0 0.0 0.00 0.00 0.00 100 1015.9
20260905123103 46 162 0.0 0.0 0.00 0.00 0.00 98 1016.4
20260905122454 46 0 0.0 0.0 0.00 0.00 0.00 100 1015.9
20260905121502 46 162 0.0 0.0 0.00 0.00 0.00 98 1016.4
20260905120654 46 0 0.0 0.0 0.00 0.00 0.00 100 1015.9
20260905115754 46 0 0.0 0.0 0.00 0.00 0.00 100 1015.7
20260905114501 45 162 0.0 0.0 0.00 0.01 0.00 98 1016.3
20260905113954 45 0 0.0 0.0 0.00 0.00 0.00 100 1015.7
20260905113103 44 162 0.0 0.0 0.00 0.01 0.00 98 1016.2
20260905113054 45 0 0.0 0.0 0.00 0.00 0.00 100 1015.6
20260905112154 44 0 0.0 0.0 0.00 0.00 0.00 97 1015.5
20260905111502 44 162 0.0 0.0 0.00 0.01 0.00 97 1016.0
20260905111254 44 0 0.0 0.0 0.00 0.00 0.00 100 1015.5
20260905110354 44 0 0.0 0.0 0.00 0.00 0.00 97 1015.4
20260905105454 44 0 0.0 0.0 0.00 0.00 0.00 97 1015.3
20260905104502 43 162 0.0 0.0 0.00 0.01 0.00 96 1015.9
20260905103654 44 0 0.0 0.0 0.00 0.00 0.00 97 1015.4
20260905103102 44 162 0.0 0.0 0.00 0.01 0.00 97 1015.9
20260905102754 44 0 0.0 0.0 0.00 0.00 0.00 96 1015.3
20260905101854 45 0 0.0 0.0 0.00 0.00 0.00 97 1015.4
20260905101505 44 162 0.0 0.0 0.00 0.01 0.00 97 1016.0
20260905100954 45 0 0.0 0.0 0.00 0.00 0.00 97 1015.3
20260905100115 45 162 0.0 0.0 0.00 0.01 0.00 97 1015.8
20260905100054 45 0 0.0 0.0 0.00 0.00 0.00 97 1015.4
20260905095154 45 0 0.0 0.0 0.00 0.00 0.00 96 1015.5
20260905094502 45 162 0.0 0.0 0.00 0.01 0.00 96 1016.0
20260905094254 45 0 0.0 0.0 0.00 0.00 0.00 97 1015.3
20260905093103 45 162 0.0 0.0 0.00 0.01 0.00 96 1016.0
20260905092454 46 0 0.0 0.0 0.00 0.00 0.00 96 1015.3
20260905091554 46 0 0.0 0.0 0.00 0.00 0.00 96 1015.5
20260905091502 46 162 0.0 0.0 0.00 0.01 0.00 96 1016.0
20260905090654 46 0 0.0 0.0 0.00 0.00 0.00 96 1015.5
20260905085754 47 0 0.0 0.0 0.00 0.01 0.00 97 1015.4
20260905084854 46 0 0.0 0.0 0.00 0.01 0.00 96 1015.5
20260905084502 46 162 0.0 0.0 0.00 0.01 0.00 96 1015.9
20260905083954 47 0 0.0 0.0 0.00 0.01 0.00 96 1015.4
20260905083103 46 162 0.0 0.0 0.00 0.01 0.00 96 1015.9
20260905083054 47 0 0.0 0.0 0.00 0.01 0.00 96 1015.3
20260905082154 47 0 0.0 0.0 0.00 0.01 0.00 96 1015.3
20260905081502 46 162 0.0 0.0 0.00 0.01 0.00 96 1015.7
20260905081254 47 0 0.0 0.0 0.00 0.01 0.00 96 1015.1
20260905075454 47 0 0.0 0.0 0.00 0.01 0.00 96 1015.0
20260905074506 48 162 0.0 0.0 0.00 0.01 0.00 96 1015.4
20260905073655 48 0 0.0 0.0 0.00 0.01 0.00 96 1015.0
20260905073109 47 162 0.0 0.0 0.00 0.01 0.00 96 1015.6
20260905072754 48 0 0.0 0.0 0.00 0.01 0.00 95 1015.0
20260905071854 48 0 0.0 0.0 0.00 0.01 0.00 95 1015.1
20260905071502 48 162 0.0 0.0 0.00 0.01 0.00 95 1015.5
20260905070954 49 0 0.0 0.0 0.00 0.01 0.00 95 1015.0
20260905070054 49 0 0.0 0.0 0.00 0.01 0.00 95 1014.7
20260905065154 50 0 0.0 0.0 0.00 0.01 0.01 95 1014.9
20260905064503 49 162 0.0 0.0 0.00 0.01 0.01 95 1015.3
20260905063113 50 162 0.0 0.0 0.00 0.01 0.01 94 1015.3
20260905062454 50 0 0.0 0.0 0.00 0.01 0.01 94 1014.9
20260905061502 51 162 0.0 0.0 0.00 0.01 0.01 94 1015.2
20260905060655 51 0 0.0 0.0 0.00 0.01 0.01 94 1014.6
20260905055754 52 0 0.0 0.0 0.00 0.01 0.01 94 1014.6
20260905054855 52 0 0.0 0.0 0.00 0.01 0.01 94 1014.6
20260905054502 52 162 0.0 0.0 0.00 0.01 0.01 94 1015.2
20260905053954 52 0 0.0 0.0 0.00 0.01 0.01 94 1014.6
20260905053102 52 162 0.0 0.0 0.00 0.01 0.01 94 1015.0
20260905053054 53 0 0.0 0.0 0.00 0.01 0.01 94 1014.5
20260905051502 53 162 0.0 0.0 0.00 0.01 0.01 92 1014.9
20260905051255 53 0 0.0 0.0 0.00 0.01 0.01 92 1014.3
20260905050355 54 0 0.0 0.0 0.00 0.01 0.01 92 1014.2
20260905050108 53 162 0.0 0.0 0.00 0.01 0.01 92 1014.7
20260905044555 54 0 0.0 0.0 0.00 0.01 0.01 92 1014.3
20260905044503 54 162 0.0 0.0 0.00 0.01 0.01 92 1014.8
20260905043654 55 0 0.0 0.0 0.00 0.01 0.01 90 1014.2
20260905043103 55 276 0.0 0.0 0.00 0.01 0.01 90 1014.8
20260905041854 56 0 0.0 0.0 0.00 0.01 0.01 88 1014.3
20260905041503 56 276 0.0 0.0 0.00 0.01 0.01 88 1014.8
20260905040955 57 0 0.0 0.0 0.00 0.01 0.01 88 1014.4
20260905040055 57 0 0.0 0.0 0.00 0.01 0.01 86 1014.3
20260905035154 58 0 0.0 0.0 0.00 0.01 0.01 85 1014.4
20260905034501 58 276 0.0 0.0 0.00 0.01 0.01 84 1014.9
20260905034254 59 0 0.0 0.0 0.00 0.01 0.01 84 1014.2
20260905033354 60 0 0.0 1.0 0.00 0.01 0.01 84 1014.2
20260905033109 59 276 0.0 1.0 0.00 0.01 0.01 84 1014.9
20260905032454 60 0 0.0 2.0 0.00 0.01 0.01 83 1014.2
20260905031555 60 0 0.0 1.0 0.00 0.01 0.01 82 1014.1
20260905031503 60 293 0.0 1.0 0.00 0.01 0.01 82 1014.6
20260905030655 61 281 0.0 4.0 0.00 0.01 0.01 80 1013.8
20260905030101 61 286 0.0 4.0 0.00 0.01 0.01 79 1014.4
20260905025755 62 271 1.0 3.0 0.00 0.01 0.01 78 1013.9
20260905024854 63 293 0.0 4.0 0.00 0.01 0.01 74 1013.8
20260905024504 63 300 1.0 4.0 0.00 0.01 0.01 73 1014.3
20260905023955 64 0 0.0 0.0 0.00 0.01 0.01 65 1013.7
20260905023130 65 99 0.0 2.0 0.00 0.01 0.01 63 1014.1
20260905023055 65 74 0.0 2.0 0.00 0.01 0.01 63 1013.6
20260905022155 66 129 1.0 5.0 0.00 0.01 0.01 62 1013.5
20260905021502 66 153 0.0 9.0 0.00 0.01 0.01 65 1013.9
20260905014543 70 162 0.0 1.0 0.00 0.01 0.01 53 1013.4
20260905013040 70 157 0.0 1.0 0.00 0.01 0.01 55 1013.2
20260905011546 71 153 0.0 2.0 0.00 0.01 0.01 53 1013.0
20260905010042 72 121 0.0 1.0 0.00 0.01 0.01 53 1013.0
20260905004537 73 35 1.0 4.0 0.00 0.01 0.01 50 1012.7
20260905003035 74 40 0.0 3.0 0.00 0.01 0.01 49 1012.5
20260905001534 74 66 0.0 4.0 0.00 0.01 0.01 49 1012.4
20260905000032 74 181 0.0 3.0 0.00 0.01 0.01 49 1012.4
20260904234534 73 4 0.0 6.0 0.00 0.01 0.01 52 1012.2
20260904233028 74 37 0.0 3.0 0.00 0.01 0.01 52 1012.4
20260904231526 73 324 1.0 7.0 0.00 0.01 0.01 52 1012.3
20260904230025 73 136 0.0 4.0 0.00 0.01 0.01 50 1012.3
20260904224522 72 202 1.0 4.0 0.00 0.01 0.01 52 1012.3
20260904223020 71 18 1.0 4.0 0.00 0.01 0.01 55 1012.6
20260904221519 70 235 1.0 5.0 0.00 0.01 0.01 56 1012.5
20260904220026 69 171 1.0 3.0 0.00 0.01 0.01 58 1012.5
20260904214515 68 169 0.0 3.0 0.00 0.01 0.01 60 1012.5
20260904213014 69 283 1.0 3.0 0.00 0.01 0.01 58 1012.6
20260904211512 68 285 0.0 3.0 0.00 0.01 0.01 61 1012.6
20260904210017 70 240 1.0 4.0 0.00 0.01 0.01 59 1012.6
20260904204510 70 113 1.0 4.0 0.00 0.01 0.01 59 1012.3
20260904203008 70 120 0.0 4.0 0.00 0.01 0.01 65 1012.4
20260904201506 67 199 0.0 2.0 0.00 0.01 0.01 68 1012.4
20260904200007 67 236 1.0 3.0 0.00 0.01 0.01 66 1012.4
20260904194506 67 171 0.0 4.0 0.00 0.01 0.01 66 1012.5
20260904193114 68 84 4.0 9.0 0.00 0.01 0.01 70 1012.2
20260904191555 64 165 0.0 3.0 0.00 0.01 0.01 76 1012.6
20260904190051 62 157 0.0 4.0 0.00 0.01 0.01 84 1012.7
20260904184555 61 161 2.0 5.0 0.00 0.02 0.01 85 1012.8
20260904183045 60 249 1.0 4.0 0.00 0.02 0.01 88 1012.8
20260904181549 57 131 0.0 5.0 0.00 0.02 0.01 93 1012.8
20260904180037 56 161 1.0 4.0 0.00 0.02 0.01 94 1012.9
20260904174557 55 146 1.0 4.0 0.00 0.05 0.01 96 1012.8
20260904173035 55 167 0.0 0.0 0.00 0.05 0.01 98 1012.7
20260904171529 53 166 0.0 0.0 0.00 0.05 0.01 98 1012.7
20260904170027 53 168 0.0 2.0 0.00 0.05 0.01 98 1012.6
20260904164525 52 161 0.0 1.0 0.00 0.05 0.01 98 1012.7
20260904163024 51 155 0.0 1.0 0.00 0.05 0.01 98 1012.8
20260904161520 51 158 0.0 3.0 0.00 0.05 0.01 98 1012.7
20260904160022 51 159 0.0 5.0 0.00 0.05 0.01 98 1012.7
20260904154519 51 156 0.0 0.0 0.00 0.05 0.01 99 1012.5
20260904153020 50 173 0.0 0.0 0.00 0.05 0.01 99 1012.3
20260904151513 50 167 0.0 0.0 0.00 0.05 0.01 98 1012.2
20260904150012 49 160 0.0 0.0 0.00 0.05 0.01 98 1012.3
20260904144510 49 160 0.0 0.0 0.00 0.10 0.01 98 1012.0
20260904143007 48 160 0.0 0.0 0.00 0.10 0.01 98 1011.9
20260904141506 48 160 0.0 0.0 0.00 0.10 0.01 98 1011.8
20260904140004 48 160 0.0 0.0 0.00 0.15 0.01 98 1011.3
20260904134502 48 160 0.0 0.0 0.00 0.15 0.01 98 1011.1
20260904133001 48 160 0.0 0.0 0.00 0.15 0.01 98 1011.0
20260904131501 48 160 0.0 0.0 0.00 0.15 0.01 98 1011.0